| time (UTC) | temp C | wind direction | speed KPH | gust KPH | rain 1hr cm | rain 24hr cm | rain mn cm | humidity % | barometer mb |
| 20260905235246 | 13 | 0 | 29.0 | 40.2 | 0.00 | 0.03 | 0.00 | 71 | 1034.2 |
| 20260905233849 | 15 | 9 | 11.3 | 14.5 | 0.00 | 0.03 | 0.00 | 70 | 1034.2 |
| 20260905232553 | 15 | 358 | 17.7 | 25.7 | 0.00 | 0.03 | 0.00 | 68 | 1034.0 |
| 20260905231318 | 15 | 236 | 20.9 | 32.2 | 0.00 | 0.03 | 0.00 | 67 | 1034.3 |
| 20260905225923 | 16 | 144 | 17.7 | 32.2 | 0.00 | 0.00 | 0.00 | 68 | 1033.8 |
| 20260905224458 | 15 | 18 | 11.3 | 14.5 | 0.00 | 0.00 | 0.00 | 69 | 1033.3 |
| 20260905223300 | 15 | 43 | 3.2 | 6.4 | 0.00 | 0.00 | 0.00 | 69 | 1033.3 |
| 20260905222029 | 15 | 30 | 0.0 | 0.0 | 0.00 | 0.00 | 0.00 | 74 | 1033.5 |
| 20260905220824 | 15 | 41 | 0.0 | 6.4 | 0.00 | 0.03 | 0.00 | 77 | 1033.3 |
| 20260905215504 | 15 | 40 | 3.2 | 6.4 | 0.00 | 0.03 | 0.03 | 73 | 1033.1 |
| 20260905214048 | 16 | 35 | 0.0 | 0.0 | 0.00 | 0.03 | 0.03 | 72 | 1033.2 |
| 20260905212729 | 13 | 38 | 0.0 | 0.0 | 0.00 | 0.03 | 0.03 | 81 | 1033.2 |
| 20260905211239 | 12 | 57 | 3.2 | 6.4 | 0.00 | 0.03 | 0.03 | 93 | 1032.9 |
| 20260905205744 | 12 | 31 | 0.0 | 0.0 | 0.00 | 0.03 | 0.03 | 93 | 1032.7 |
| 20260905204433 | 12 | 29 | 0.0 | 0.0 | 0.00 | 0.03 | 0.03 | 91 | 1032.9 |
| 20260905203215 | 13 | 36 | 0.0 | 0.0 | 0.00 | 0.03 | 0.03 | 90 | 1032.9 |
| 20260905201916 | 13 | 32 | 0.0 | 0.0 | 0.00 | 0.03 | 0.03 | 86 | 1032.9 |
| 20260905200434 | 13 | 30 | 0.0 | 0.0 | 0.00 | 0.03 | 0.03 | 90 | 1033.1 |
| 20260905194951 | 13 | 31 | 0.0 | 0.0 | 0.00 | 0.03 | 0.03 | 88 | 1032.8 |
| 20260905193704 | 13 | 37 | 0.0 | 6.4 | 0.00 | 0.03 | 0.03 | 87 | 1032.8 |
| 20260905192438 | 13 | 36 | 0.0 | 0.0 | 0.00 | 0.03 | 0.03 | 85 | 1032.7 |
| 20260905191137 | 13 | 36 | 0.0 | 0.0 | 0.00 | 0.03 | 0.03 | 85 | 1032.4 |
| 20260905185842 | 13 | 39 | 0.0 | 0.0 | 0.00 | 0.03 | 0.03 | 85 | 1032.4 |
| 20260905184353 | 13 | 31 | 0.0 | 0.0 | 0.00 | 0.03 | 0.03 | 84 | 1032.1 |
| 20260905183149 | 13 | 29 | 0.0 | 6.4 | 0.00 | 0.03 | 0.03 | 82 | 1032.1 |
| 20260905181816 | 15 | 29 | 0.0 | 0.0 | 0.00 | 0.03 | 0.03 | 76 | 1032.3 |
| 20260905180551 | 15 | 36 | 0.0 | 0.0 | 0.00 | 0.03 | 0.03 | 73 | 1032.2 |
| 20260905175144 | 16 | 38 | 0.0 | 0.0 | 0.00 | 0.03 | 0.03 | 71 | 1031.9 |
| 20260905173827 | 17 | 45 | 0.0 | 0.0 | 0.00 | 0.03 | 0.03 | 67 | 1032.0 |
| 20260905172504 | 17 | 46 | 6.4 | 6.4 | 0.00 | 0.03 | 0.03 | 65 | 1032.0 |
| 20260905171004 | 17 | 41 | 0.0 | 6.4 | 0.00 | 0.03 | 0.03 | 61 | 1031.8 |
| 20260905165739 | 18 | 12 | 14.5 | 14.5 | 0.00 | 0.03 | 0.03 | 59 | 1031.3 |
| 20260905164314 | 18 | 34 | 0.0 | 0.0 | 0.00 | 0.03 | 0.03 | 57 | 1031.6 |
| 20260905162853 | 20 | 12 | 6.4 | 14.5 | 0.00 | 0.03 | 0.03 | 57 | 1031.4 |
| 20260905161453 | 20 | 28 | 11.3 | 14.5 | 0.00 | 0.03 | 0.03 | 56 | 1031.1 |
| 20260905160006 | 21 | 40 | 3.2 | 6.4 | 0.00 | 0.03 | 0.03 | 55 | 1031.1 |
| 20260905154515 | 21 | 13 | 17.7 | 25.7 | 0.00 | 0.03 | 0.03 | 54 | 1031.0 |
| 20260905153244 | 21 | 308 | 29.0 | 32.2 | 0.00 | 0.03 | 0.03 | 53 | 1031.0 |
| 20260905151956 | 22 | 292 | 3.2 | 14.5 | 0.00 | 0.03 | 0.03 | 55 | 1030.9 |
| 20260905150714 | 20 | 26 | 3.2 | 6.4 | 0.00 | 0.03 | 0.03 | 56 | 1031.0 |
| 20260905145319 | 21 | 346 | 32.2 | 40.2 | 0.00 | 0.03 | 0.03 | 55 | 1031.1 |
| 20260905143913 | 21 | 163 | 17.7 | 17.7 | 0.00 | 0.03 | 0.03 | 55 | 1031.0 |
| 20260905142428 | 21 | 2 | 14.5 | 17.7 | 0.00 | 0.03 | 0.03 | 55 | 1030.9 |
| 20260905140926 | 21 | 76 | 11.3 | 17.7 | 0.00 | 0.03 | 0.03 | 55 | 1031.0 |
| 20260905135608 | 22 | 350 | 11.3 | 17.7 | 0.00 | 0.03 | 0.03 | 52 | 1031.1 |
| 20260905134219 | 22 | 337 | 32.2 | 40.2 | 0.00 | 0.03 | 0.03 | 52 | 1030.9 |
| 20260905132719 | 22 | 145 | 17.7 | 32.2 | 0.00 | 0.03 | 0.03 | 51 | 1030.9 |
| 20260905131347 | 21 | 28 | 17.7 | 32.2 | 0.00 | 0.03 | 0.03 | 53 | 1031.1 |
| 20260905125845 | 22 | 27 | 17.7 | 25.7 | 0.00 | 0.03 | 0.03 | 51 | 1031.0 |
| 20260905124644 | 22 | 5 | 46.7 | 61.2 | 0.00 | 0.03 | 0.03 | 53 | 1031.0 |
| 20260905123438 | 21 | 54 | 20.9 | 46.7 | 0.00 | 0.03 | 0.03 | 55 | 1031.2 |
| 20260905122028 | 21 | 345 | 49.9 | 93.3 | 0.00 | 0.03 | 0.03 | 56 | 1031.1 |
| 20260905120801 | 20 | 33 | 20.9 | 32.2 | 0.00 | 0.03 | 0.03 | 61 | 1031.3 |
| 20260905115553 | 20 | 35 | 14.5 | 17.7 | 0.00 | 0.03 | 0.03 | 66 | 1031.3 |
| 20260905114239 | 20 | 73 | 14.5 | 17.7 | 0.00 | 0.03 | 0.03 | 67 | 1031.4 |
| 20260905113026 | 20 | 4 | 14.5 | 17.7 | 0.00 | 0.03 | 0.03 | 67 | 1031.1 |
| 20260905111739 | 18 | 351 | 35.4 | 54.7 | 0.00 | 0.03 | 0.03 | 70 | 1031.6 |
| 20260905110533 | 20 | 227 | 14.5 | 25.7 | 0.00 | 0.03 | 0.03 | 72 | 1031.7 |
| 20260905105306 | 18 | 3 | 20.9 | 32.2 | 0.00 | 0.03 | 0.03 | 78 | 1031.7 |
| 20260905103858 | 17 | 33 | 0.0 | 0.0 | 0.00 | 0.03 | 0.03 | 84 | 1031.6 |
| 20260905102444 | 17 | 172 | 17.7 | 25.7 | 0.00 | 0.03 | 0.03 | 84 | 1031.6 |
| 20260905100943 | 16 | 69 | 6.4 | 14.5 | 0.00 | 0.03 | 0.03 | 86 | 1031.5 |
| 20260905095537 | 16 | 41 | 11.3 | 14.5 | 0.00 | 0.03 | 0.03 | 85 | 1031.2 |
| 20260905094301 | 16 | 26 | 14.5 | 17.7 | 0.00 | 0.03 | 0.03 | 85 | 1030.8 |
| 20260905092825 | 16 | 34 | 0.0 | 0.0 | 0.00 | 0.03 | 0.03 | 86 | 1031.2 |
| 20260905091330 | 16 | 335 | 17.7 | 17.7 | 0.03 | 0.03 | 0.03 | 86 | 1030.2 |
| 20260905085953 | 15 | 45 | 6.4 | 14.5 | 0.03 | 0.03 | 0.03 | 88 | 1031.6 |
| 20260905084509 | 15 | 14 | 17.7 | 25.7 | 0.03 | 0.03 | 0.03 | 88 | 1031.0 |
| 20260905083025 | 15 | 11 | 20.9 | 25.7 | 0.03 | 0.03 | 0.03 | 87 | 1031.0 |
| 20260905081629 | 16 | 350 | 32.2 | 40.2 | 0.00 | 0.00 | 0.03 | 85 | 1031.0 |
| 20260905080307 | 16 | 28 | 17.7 | 25.7 | 0.00 | 0.00 | 0.03 | 83 | 1030.6 |
| 20260905074826 | 17 | 353 | 14.5 | 17.7 | 0.00 | 0.00 | 0.00 | 72 | 1030.5 |
| 20260905073605 | 17 | 26 | 6.4 | 14.5 | 0.00 | 0.00 | 0.00 | 69 | 1029.3 |
| 20260905072324 | 17 | 7 | 61.2 | 86.9 | 0.00 | 0.00 | 0.00 | 67 | 1030.1 |
| 20260905071111 | 17 | 356 | 25.7 | 32.2 | 0.00 | 0.00 | 0.00 | 68 | 1030.2 |
| 20260905065649 | 17 | 29 | 3.2 | 14.5 | 0.00 | 0.00 | 0.00 | 69 | 1029.9 |
| 20260905064215 | 17 | 15 | 11.3 | 14.5 | 0.00 | 0.00 | 0.00 | 72 | 1029.9 |
| 20260905062900 | 17 | 325 | 6.4 | 14.5 | 0.00 | 0.00 | 0.00 | 72 | 1029.2 |
| 20260905061449 | 17 | 33 | 3.2 | 6.4 | 0.00 | 0.00 | 0.00 | 73 | 1029.1 |
| 20260905060030 | 17 | 26 | 11.3 | 14.5 | 0.00 | 0.00 | 0.00 | 73 | 1029.2 |
| 20260905054540 | 17 | 335 | 3.2 | 6.4 | 0.00 | 0.00 | 0.00 | 73 | 1029.4 |
| 20260905053109 | 17 | 343 | 11.3 | 25.7 | 0.00 | 0.00 | 0.00 | 73 | 1029.1 |
| 20260905051740 | 17 | 72 | 6.4 | 14.5 | 0.00 | 0.00 | 0.00 | 75 | 1028.8 |
| 20260905050231 | 17 | 37 | 0.0 | 0.0 | 0.00 | 0.00 | 0.00 | 76 | 1028.3 |
| 20260905044956 | 17 | 30 | 0.0 | 0.0 | 0.00 | 0.00 | 0.00 | 79 | 1028.5 |
| 20260905043529 | 17 | 32 | 0.0 | 0.0 | 0.00 | 0.00 | 0.00 | 81 | 1028.3 |
| 20260905042306 | 16 | 75 | 6.4 | 14.5 | 0.00 | 0.00 | 0.00 | 82 | 1028.4 |
| 20260905040805 | 17 | 40 | 0.0 | 6.4 | 0.00 | 0.00 | 0.00 | 82 | 1028.5 |
| 20260905035516 | 17 | 40 | 3.2 | 6.4 | 0.00 | 0.00 | 0.00 | 82 | 1028.9 |
| 20260905034304 | 17 | 30 | 3.2 | 6.4 | 0.00 | 0.00 | 0.00 | 81 | 1029.0 |
| 20260905033007 | 17 | 11 | 14.5 | 17.7 | 0.00 | 0.00 | 0.00 | 82 | 1029.2 |
| 20260905031635 | 17 | 10 | 14.5 | 17.7 | 0.00 | 0.00 | 0.00 | 78 | 1029.2 |
| 20260905030229 | 17 | 6 | 6.4 | 6.4 | 0.00 | 0.00 | 0.00 | 77 | 1028.8 |
| 20260905024729 | 18 | 17 | 32.2 | 40.2 | 0.00 | 0.00 | 0.00 | 75 | 1028.7 |
| 20260905023506 | 18 | 233 | 20.9 | 32.2 | 0.00 | 0.00 | 0.00 | 74 | 1028.1 |
| 20260905022305 | 18 | 19 | 20.9 | 32.2 | 0.00 | 0.00 | 0.00 | 73 | 1027.9 |
| 20260905020959 | 18 | 41 | 11.3 | 17.7 | 0.00 | 0.00 | 0.00 | 73 | 1027.7 |
| 20260905015659 | 18 | 90 | 6.4 | 6.4 | 0.00 | 0.00 | 0.00 | 71 | 1027.5 |
| 20260905014439 | 18 | 117 | 20.9 | 25.7 | 0.00 | 0.00 | 0.00 | 70 | 1027.4 |
| 20260905013239 | 18 | 20 | 3.2 | 6.4 | 0.00 | 0.00 | 0.00 | 70 | 1026.9 |
| 20260905011849 | 18 | 208 | 14.5 | 25.7 | 0.00 | 0.00 | 0.00 | 69 | 1026.7 |
| 20260905010545 | 18 | 185 | 29.0 | 32.2 | 0.00 | 0.00 | 0.00 | 71 | 1025.3 |
| 20260905005140 | 18 | 88 | 14.5 | 14.5 | 0.00 | 0.00 | 0.00 | 71 | 1025.5 |
| 20260905003909 | 18 | 102 | 14.5 | 17.7 | 0.00 | 0.00 | 0.00 | 70 | 1025.7 |
| 20260905002420 | 20 | 208 | 35.4 | 46.7 | 0.00 | 0.00 | 0.00 | 68 | 1025.5 |
| 20260905000955 | 20 | 193 | 35.4 | 54.7 | 0.00 | 0.00 | 0.00 | 66 | 1025.7 |
| 20260904235621 | 20 | 323 | 25.7 | 32.2 | 0.00 | 0.00 | 0.00 | 66 | 1025.5 |